contact:dominique.lefevre@mio.osupytheas.fr, maurice.libes@osupytheas.fr, didier.mallarino@osupytheas.fr
Project:EMSO http://www.emso-fr.org/EMSO-France
Depth: 2436.0 m
Title:EMSO Ligure Ouest : Data MII capteur CSTAR
DateTime,Latitude,Longitude,Instrument_Serial,Reference_Counts,Signal_Counts,Corrected_Signal_raw_counts,Calculated_Beam_c_inverse_meters,Internal_thermistor_counts
DateTime,Latitude,Longitude,Instrument_Serial,Reference_Counts,Signal_Counts,Corrected_Signal_raw_counts,Calculated_Beam_c_inverse_meters,Internal_thermistor_counts
2019-11-11T00:00:31,42.805,6.029,CST-1368DR,7394,10354,15306,0.080,551
2019-11-11T00:03:32,42.805,6.029,CST-1368DR,7394,10355,15308,0.080,551
2019-11-11T00:06:34,42.805,6.029,CST-1368DR,7394,10355,15309,0.079,551
2019-11-11T00:09:36,42.805,6.029,CST-1368DR,7394,10359,15313,0.078,551
2019-11-11T00:12:37,42.805,6.029,CST-1368DR,7394,10358,15313,0.078,551
2019-11-11T00:15:39,42.805,6.029,CST-1368DR,7394,10358,15312,0.079,551
2019-11-11T00:18:40,42.805,6.029,CST-1368DR,7394,10359,15313,0.078,551
2019-11-11T00:21:42,42.805,6.029,CST-1368DR,7394,10357,15311,0.079,551
2019-11-11T00:24:44,42.805,6.029,CST-1368DR,7394,10358,15313,0.078,551
2019-11-11T00:27:45,42.805,6.029,CST-1368DR,7394,10358,15312,0.079,551
2019-11-11T00:30:47,42.805,6.029,CST-1368DR,7394,10358,15313,0.078,551
2019-11-11T00:33:49,42.805,6.029,CST-1368DR,7394,10358,15312,0.079,551
2019-11-11T00:36:51,42.805,6.029,CST-1368DR,7394,10359,15313,0.078,551
2019-11-11T00:39:53,42.805,6.029,CST-1368DR,7394,10357,15311,0.079,551
2019-11-11T00:42:54,42.805,6.029,CST-1368DR,7394,10358,15313,0.078,551
2019-11-11T00:45:56,42.805,6.029,CST-1368DR,7394,10358,15312,0.079,551
2019-11-11T00:48:58,42.805,6.029,CST-1368DR,7394,10358,15312,0.079,551
2019-11-11T00:51:59,42.805,6.029,CST-1368DR,7394,10357,15311,0.079,551
2019-11-11T00:55:01,42.805,6.029,CST-1368DR,7394,10355,15308,0.080,550
2019-11-11T00:58:03,42.805,6.029,CST-1368DR,7394,10352,15304,0.081,551
2019-11-11T01:01:04,42.805,6.029,CST-1368DR,7394,10359,15313,0.078,551
2019-11-11T01:04:06,42.805,6.029,CST-1368DR,7394,10357,15311,0.079,551
2019-11-11T01:07:08,42.805,6.029,CST-1368DR,7394,10358,15313,0.078,551
2019-11-11T01:10:10,42.805,6.029,CST-1368DR,7394,10358,15312,0.079,550
2019-11-11T01:13:11,42.805,6.029,CST-1368DR,7394,10351,15303,0.081,551
2019-11-11T01:16:13,42.805,6.029,CST-1368DR,7394,10356,15309,0.079,551
2019-11-11T01:19:15,42.805,6.029,CST-1368DR,7394,10357,15311,0.079,551
2019-11-11T01:22:16,42.805,6.029,CST-1368DR,7394,10356,15310,0.079,551
2019-11-11T01:25:18,42.805,6.029,CST-1368DR,7394,10355,15308,0.080,551
2019-11-11T01:28:20,42.805,6.029,CST-1368DR,7394,10356,15309,0.079,551
2019-11-11T01:31:21,42.805,6.029,CST-1368DR,7394,10357,15311,0.079,551
2019-11-11T01:34:23,42.805,6.029,CST-1368DR,7394,10357,15311,0.079,551
2019-11-11T01:37:24,42.805,6.029,CST-1368DR,7394,10356,15310,0.079,551
2019-11-11T01:40:26,42.805,6.029,CST-1368DR,7394,10356,15310,0.079,551
2019-11-11T01:43:28,42.805,6.029,CST-1368DR,7394,10357,15311,0.079,551
2019-11-11T01:46:29,42.805,6.029,CST-1368DR,7394,10356,15310,0.079,551
2019-11-11T01:49:31,42.805,6.029,CST-1368DR,7394,10356,15310,0.079,551
2019-11-11T01:52:33,42.805,6.029,CST-1368DR,7394,10355,15308,0.080,551
2019-11-11T01:55:35,42.805,6.029,CST-1368DR,7394,10356,15310,0.079,551
2019-11-11T01:58:36,42.805,6.029,CST-1368DR,7394,10357,15311,0.079,551
2019-11-11T02:01:38,42.805,6.029,CST-1368DR,7394,10357,15311,0.079,551
2019-11-11T02:04:40,42.805,6.029,CST-1368DR,7394,10351,15303,0.081,551
2019-11-11T02:07:41,42.805,6.029,CST-1368DR,7394,10357,15311,0.079,550
2019-11-11T02:10:43,42.805,6.029,CST-1368DR,7393,10356,15311,0.079,551
2019-11-11T02:13:45,42.805,6.029,CST-1368DR,7394,10357,15311,0.079,551
2019-11-11T02:16:46,42.805,6.029,CST-1368DR,7394,10356,15310,0.079,551
2019-11-11T02:19:48,42.805,6.029,CST-1368DR,7394,10357,15311,0.079,551
2019-11-11T02:22:50,42.805,6.029,CST-1368DR,7393,10355,15310,0.079,551
2019-11-11T02:25:51,42.805,6.029,CST-1368DR,7393,10356,15311,0.079,551
2019-11-11T02:28:53,42.805,6.029,CST-1368DR,7393,10355,15311,0.079,551
2019-11-11T02:31:55,42.805,6.029,CST-1368DR,7393,10356,15311,0.079,551
2019-11-11T02:34:56,42.805,6.029,CST-1368DR,7393,10356,15311,0.079,551
2019-11-11T02:37:58,42.805,6.029,CST-1368DR,7393,10355,15310,0.079,551
2019-11-11T02:40:59,42.805,6.029,CST-1368DR,7393,10356,15311,0.079,551
2019-11-11T02:44:01,42.805,6.029,CST-1368DR,7393,10356,15311,0.079,551
2019-11-11T02:47:03,42.805,6.029,CST-1368DR,7393,10353,15307,0.080,551
2019-11-11T02:50:04,42.805,6.029,CST-1368DR,7393,10354,15309,0.079,551
2019-11-11T02:53:06,42.805,6.029,CST-1368DR,7393,10356,15312,0.079,551
2019-11-11T02:56:08,42.805,6.029,CST-1368DR,7393,10353,15307,0.080,551
2019-11-11T02:59:09,42.805,6.029,CST-1368DR,7394,10355,15308,0.080,551
2019-11-11T03:02:11,42.805,6.029,CST-1368DR,7393,10356,15312,0.079,551
2019-11-11T03:05:13,42.805,6.029,CST-1368DR,7393,10356,15311,0.079,551
2019-11-11T03:08:14,42.805,6.029,CST-1368DR,7393,10355,15311,0.079,551
2019-11-11T03:11:16,42.805,6.029,CST-1368DR,7393,10356,15311,0.079,551
2019-11-11T03:14:18,42.805,6.029,CST-1368DR,7393,10355,15311,0.079,551
2019-11-11T03:17:19,42.805,6.029,CST-1368DR,7393,10355,15310,0.079,551
2019-11-11T03:20:21,42.805,6.029,CST-1368DR,7393,10356,15311,0.079,551
2019-11-11T03:23:23,42.805,6.029,CST-1368DR,7393,10355,15310,0.079,551
2019-11-11T03:26:24,42.805,6.029,CST-1368DR,7393,10355,15310,0.079,551
2019-11-11T03:29:26,42.805,6.029,CST-1368DR,7393,10354,15309,0.079,550
2019-11-11T03:32:28,42.805,6.029,CST-1368DR,7393,10355,15310,0.079,551
2019-11-11T03:35:29,42.805,6.029,CST-1368DR,7393,10355,15310,0.079,551
2019-11-11T03:38:31,42.805,6.029,CST-1368DR,7393,10355,15311,0.079,551
2019-11-11T03:41:32,42.805,6.029,CST-1368DR,7393,10356,15311,0.079,551
2019-11-11T03:44:34,42.805,6.029,CST-1368DR,7393,10355,15311,0.079,551
2019-11-11T03:47:36,42.805,6.029,CST-1368DR,7393,10354,15309,0.079,551
2019-11-11T03:50:37,42.805,6.029,CST-1368DR,7393,10354,15309,0.079,550
2019-11-11T03:53:39,42.805,6.029,CST-1368DR,7393,10352,15306,0.080,551
2019-11-11T03:56:41,42.805,6.029,CST-1368DR,7393,10354,15309,0.079,551
2019-11-11T03:59:42,42.805,6.029,CST-1368DR,7393,10355,15310,0.079,551
2019-11-11T04:02:44,42.805,6.029,CST-1368DR,7393,10355,15310,0.079,551
2019-11-11T04:05:46,42.805,6.029,CST-1368DR,7393,10354,15309,0.079,551
2019-11-11T04:08:47,42.805,6.029,CST-1368DR,7393,10353,15308,0.080,551
2019-11-11T04:11:49,42.805,6.029,CST-1368DR,7393,10354,15308,0.080,551
2019-11-11T04:14:51,42.805,6.029,CST-1368DR,7393,10355,15311,0.079,551
2019-11-11T04:17:52,42.805,6.029,CST-1368DR,7393,10355,15310,0.079,551
2019-11-11T04:20:54,42.805,6.029,CST-1368DR,7393,10355,15310,0.079,551
2019-11-11T04:23:56,42.805,6.029,CST-1368DR,7393,10356,15311,0.079,550
2019-11-11T04:26:58,42.805,6.029,CST-1368DR,7393,10356,15311,0.079,551
2019-11-11T04:29:59,42.805,6.029,CST-1368DR,7393,10351,15305,0.080,551
2019-11-11T04:33:01,42.805,6.029,CST-1368DR,7393,10355,15310,0.079,551
2019-11-11T04:36:02,42.805,6.029,CST-1368DR,7393,10355,15310,0.079,551
2019-11-11T04:39:04,42.805,6.029,CST-1368DR,7393,10355,15310,0.079,550
2019-11-11T04:42:06,42.805,6.029,CST-1368DR,7393,10355,15310,0.079,551
2019-11-11T04:45:07,42.805,6.029,CST-1368DR,7393,10355,15311,0.079,551
2019-11-11T04:48:09,42.805,6.029,CST-1368DR,7393,10353,15307,0.080,551
2019-11-11T04:51:11,42.805,6.029,CST-1368DR,7393,10354,15309,0.079,551
2019-11-11T04:54:12,42.805,6.029,CST-1368DR,7393,10355,15310,0.079,551
2019-11-11T04:57:14,42.805,6.029,CST-1368DR,7393,10354,15309,0.079,551
2019-11-11T05:00:16,42.805,6.029,CST-1368DR,7393,10353,15307,0.080,551
2019-11-11T05:03:17,42.805,6.029,CST-1368DR,7393,10353,15307,0.080,551
2019-11-11T05:06:19,42.805,6.029,CST-1368DR,7393,10356,15311,0.079,550
2019-11-11T05:09:21,42.805,6.029,CST-1368DR,7393,10355,15310,0.079,551
2019-11-11T05:12:22,42.805,6.029,CST-1368DR,7393,10355,15310,0.079,550
2019-11-11T05:15:24,42.805,6.029,CST-1368DR,7393,10356,15311,0.079,551
2019-11-11T05:18:26,42.805,6.029,CST-1368DR,7393,10356,15311,0.079,551
2019-11-11T05:21:27,42.805,6.029,CST-1368DR,7392,10355,15312,0.079,551
2019-11-11T05:24:29,42.805,6.029,CST-1368DR,7393,10353,15307,0.080,551
2019-11-11T05:27:31,42.805,6.029,CST-1368DR,7392,10354,15311,0.079,551
2019-11-11T05:30:32,42.805,6.029,CST-1368DR,7392,10353,15309,0.079,550
2019-11-11T05:33:34,42.805,6.029,CST-1368DR,7392,10354,15311,0.079,551
2019-11-11T05:36:36,42.805,6.029,CST-1368DR,7392,10354,15311,0.079,551
2019-11-11T05:39:37,42.805,6.029,CST-1368DR,7392,10352,15307,0.080,551
2019-11-11T05:42:39,42.805,6.029,CST-1368DR,7392,10355,15311,0.079,551
2019-11-11T05:45:41,42.805,6.029,CST-1368DR,7393,10355,15311,0.079,551
2019-11-11T05:48:42,42.805,6.029,CST-1368DR,7392,10354,15310,0.079,551
2019-11-11T05:51:44,42.805,6.029,CST-1368DR,7392,10354,15310,0.079,551
2019-11-11T05:54:46,42.805,6.029,CST-1368DR,7392,10355,15313,0.078,551
2019-11-11T05:57:47,42.805,6.029,CST-1368DR,7392,10353,15310,0.079,551
2019-11-11T06:00:49,42.805,6.029,CST-1368DR,7392,10354,15310,0.079,551
2019-11-11T06:03:51,42.805,6.029,CST-1368DR,7392,10353,15308,0.080,551
2019-11-11T06:06:52,42.805,6.029,CST-1368DR,7392,10355,15313,0.078,551
2019-11-11T06:09:54,42.805,6.029,CST-1368DR,7392,10351,15306,0.080,551
2019-11-11T06:12:55,42.805,6.029,CST-1368DR,7392,10353,15309,0.079,551
2019-11-11T06:15:57,42.805,6.029,CST-1368DR,7392,10355,15312,0.079,551
2019-11-11T06:18:59,42.805,6.029,CST-1368DR,7392,10354,15310,0.079,551
2019-11-11T06:22:01,42.805,6.029,CST-1368DR,7392,10355,15313,0.078,551
2019-11-11T06:25:02,42.805,6.029,CST-1368DR,7392,10355,15312,0.079,551
2019-11-11T06:28:04,42.805,6.029,CST-1368DR,7392,10354,15310,0.079,551
2019-11-11T06:31:06,42.805,6.029,CST-1368DR,7392,10355,15311,0.079,551
2019-11-11T06:34:07,42.805,6.029,CST-1368DR,7392,10353,15309,0.079,551
2019-11-11T06:37:09,42.805,6.029,CST-1368DR,7392,10352,15307,0.080,551
2019-11-11T06:40:11,42.805,6.029,CST-1368DR,7392,10353,15309,0.079,551
2019-11-11T06:43:12,42.805,6.029,CST-1368DR,7392,10352,15307,0.080,551
2019-11-11T06:46:14,42.805,6.029,CST-1368DR,7392,10354,15310,0.079,551
2019-11-11T06:49:16,42.805,6.029,CST-1368DR,7392,10352,15308,0.080,551
2019-11-11T06:52:17,42.805,6.029,CST-1368DR,7392,10353,15309,0.079,551
2019-11-11T06:55:19,42.805,6.029,CST-1368DR,7392,10353,15310,0.079,551
2019-11-11T06:58:21,42.805,6.029,CST-1368DR,7392,10353,15309,0.079,551
2019-11-11T07:01:23,42.805,6.029,CST-1368DR,7392,10352,15307,0.080,550
2019-11-11T07:04:24,42.805,6.029,CST-1368DR,7392,10351,15306,0.080,551
2019-11-11T07:07:26,42.805,6.029,CST-1368DR,7392,10353,15308,0.080,551
2019-11-11T07:10:27,42.805,6.029,CST-1368DR,7392,10353,15308,0.080,551
2019-11-11T07:13:29,42.805,6.029,CST-1368DR,7392,10353,15309,0.079,551
2019-11-11T07:16:31,42.805,6.029,CST-1368DR,7392,10353,15310,0.079,551
2019-11-11T07:19:32,42.805,6.029,CST-1368DR,7392,10353,15309,0.079,551
2019-11-11T07:22:34,42.805,6.029,CST-1368DR,7392,10353,15309,0.079,551
2019-11-11T07:25:36,42.805,6.029,CST-1368DR,7392,10353,15309,0.079,551
2019-11-11T07:28:38,42.805,6.029,CST-1368DR,7392,10353,15310,0.079,551
2019-11-11T07:31:39,42.805,6.029,CST-1368DR,7392,10354,15310,0.079,551
2019-11-11T07:34:41,42.805,6.029,CST-1368DR,7392,10353,15308,0.080,551
2019-11-11T07:37:42,42.805,6.029,CST-1368DR,7392,10353,15309,0.079,551
2019-11-11T07:40:44,42.805,6.029,CST-1368DR,7392,10353,15310,0.079,551
2019-11-11T07:43:46,42.805,6.029,CST-1368DR,7392,10353,15309,0.079,551
2019-11-11T07:46:47,42.805,6.029,CST-1368DR,7392,10354,15310,0.079,550
2019-11-11T07:49:49,42.805,6.029,CST-1368DR,7392,10352,15308,0.080,551
2019-11-11T07:52:51,42.805,6.029,CST-1368DR,7392,10353,15310,0.079,551
2019-11-11T07:55:52,42.805,6.029,CST-1368DR,7392,10353,15309,0.079,551
2019-11-11T07:58:54,42.805,6.029,CST-1368DR,7392,10353,15308,0.080,551
2019-11-11T08:01:56,42.805,6.029,CST-1368DR,7392,10352,15308,0.080,551
2019-11-11T08:04:57,42.805,6.029,CST-1368DR,7392,10353,15308,0.080,551
2019-11-11T08:07:59,42.805,6.029,CST-1368DR,7392,10352,15307,0.080,551
2019-11-11T08:11:01,42.805,6.029,CST-1368DR,7392,10353,15309,0.079,551
2019-11-11T08:14:02,42.805,6.029,CST-1368DR,7392,10351,15306,0.080,551
2019-11-11T08:17:04,42.805,6.029,CST-1368DR,7391,10352,15310,0.079,551
2019-11-11T08:20:06,42.805,6.029,CST-1368DR,7391,10352,15310,0.079,551
2019-11-11T08:23:07,42.805,6.029,CST-1368DR,7391,10352,15309,0.079,551
2019-11-11T08:26:09,42.805,6.029,CST-1368DR,7391,10353,15311,0.079,551
2019-11-11T08:29:10,42.805,6.029,CST-1368DR,7391,10352,15310,0.079,551
2019-11-11T08:32:12,42.805,6.029,CST-1368DR,7391,10351,15309,0.079,551
2019-11-11T08:35:14,42.805,6.029,CST-1368DR,7391,10349,15305,0.080,551
2019-11-11T08:38:15,42.805,6.029,CST-1368DR,7392,10352,15308,0.080,551
2019-11-11T08:41:17,42.805,6.029,CST-1368DR,7391,10352,15309,0.079,551
2019-11-11T08:44:19,42.805,6.029,CST-1368DR,7391,10353,15310,0.079,551
2019-11-11T08:47:20,42.805,6.029,CST-1368DR,7391,10352,15310,0.079,551
2019-11-11T08:50:22,42.805,6.029,CST-1368DR,7391,10351,15309,0.079,550
2019-11-11T08:53:24,42.805,6.029,CST-1368DR,7391,10349,15306,0.080,551
2019-11-11T08:56:25,42.805,6.029,CST-1368DR,7391,10349,15306,0.080,551
2019-11-11T08:59:27,42.805,6.029,CST-1368DR,7391,10352,15310,0.079,551
2019-11-11T09:02:29,42.805,6.029,CST-1368DR,7391,10352,15310,0.079,551
2019-11-11T09:05:30,42.805,6.029,CST-1368DR,7391,10351,15308,0.080,551
2019-11-11T09:08:32,42.805,6.029,CST-1368DR,7391,10351,15309,0.079,551
2019-11-11T09:11:34,42.805,6.029,CST-1368DR,7391,10352,15310,0.079,551
2019-11-11T09:14:35,42.805,6.029,CST-1368DR,7391,10352,15309,0.079,551
2019-11-11T09:17:37,42.805,6.029,CST-1368DR,7391,10352,15310,0.079,551
2019-11-11T09:20:38,42.805,6.029,CST-1368DR,7391,10352,15309,0.079,551
2019-11-11T09:23:40,42.805,6.029,CST-1368DR,7391,10351,15308,0.080,550
2019-11-11T09:26:42,42.805,6.029,CST-1368DR,7391,10352,15310,0.079,551
2019-11-11T09:29:43,42.805,6.029,CST-1368DR,7391,10353,15310,0.079,551
2019-11-11T09:32:45,42.805,6.029,CST-1368DR,7391,10353,15310,0.079,551
2019-11-11T09:35:47,42.805,6.029,CST-1368DR,7391,10352,15309,0.079,551
2019-11-11T09:38:48,42.805,6.029,CST-1368DR,7391,10352,15310,0.079,551
2019-11-11T09:41:50,42.805,6.029,CST-1368DR,7391,10351,15308,0.080,551
2019-11-11T09:44:52,42.805,6.029,CST-1368DR,7391,10350,15307,0.080,551
2019-11-11T09:47:53,42.805,6.029,CST-1368DR,7391,10352,15309,0.079,551
2019-11-11T09:50:55,42.805,6.029,CST-1368DR,7391,10352,15309,0.079,551
2019-11-11T09:53:57,42.805,6.029,CST-1368DR,7391,10352,15310,0.079,551
2019-11-11T09:56:58,42.805,6.029,CST-1368DR,7391,10352,15309,0.079,551
2019-11-11T10:00:00,42.805,6.029,CST-1368DR,7391,10353,15311,0.079,551
2019-11-11T10:03:01,42.805,6.029,CST-1368DR,7391,10352,15310,0.079,551
2019-11-11T10:06:03,42.805,6.029,CST-1368DR,7391,10352,15309,0.079,551
2019-11-11T10:09:05,42.805,6.029,CST-1368DR,7391,10353,15310,0.079,551
2019-11-11T10:12:07,42.805,6.029,CST-1368DR,7391,10353,15310,0.079,551
2019-11-11T10:15:08,42.805,6.029,CST-1368DR,7391,10352,15309,0.079,551
2019-11-11T10:18:10,42.805,6.029,CST-1368DR,7391,10351,15309,0.079,551
2019-11-11T10:21:12,42.805,6.029,CST-1368DR,7391,10352,15309,0.079,551
2019-11-11T10:24:13,42.805,6.029,CST-1368DR,7391,10352,15309,0.079,551
2019-11-11T10:27:15,42.805,6.029,CST-1368DR,7391,10352,15310,0.079,551
2019-11-11T10:30:17,42.805,6.029,CST-1368DR,7391,10352,15310,0.079,551
2019-11-11T10:33:18,42.805,6.029,CST-1368DR,7391,10352,15309,0.079,551
2019-11-11T10:36:20,42.805,6.029,CST-1368DR,7391,10352,15309,0.079,551
2019-11-11T10:39:22,42.805,6.029,CST-1368DR,7391,10353,15311,0.079,551
2019-11-11T10:42:23,42.805,6.029,CST-1368DR,7391,10353,15310,0.079,551
2019-11-11T10:45:25,42.805,6.029,CST-1368DR,7391,10351,15309,0.079,551
2019-11-11T10:48:27,42.805,6.029,CST-1368DR,7391,10352,15310,0.079,551
2019-11-11T10:51:28,42.805,6.029,CST-1368DR,7391,10352,15310,0.079,551
2019-11-11T10:54:30,42.805,6.029,CST-1368DR,7391,10350,15307,0.080,550
2019-11-11T10:57:32,42.805,6.029,CST-1368DR,7391,10353,15310,0.079,551
2019-11-11T11:00:33,42.805,6.029,CST-1368DR,7391,10351,15308,0.080,551
2019-11-11T11:03:35,42.805,6.029,CST-1368DR,7391,10352,15309,0.079,551
2019-11-11T11:06:37,42.805,6.029,CST-1368DR,7391,10352,15309,0.079,551
2019-11-11T11:09:38,42.805,6.029,CST-1368DR,7391,10353,15310,0.079,551
2019-11-11T11:12:40,42.805,6.029,CST-1368DR,7391,10351,15309,0.079,551
2019-11-11T11:15:42,42.805,6.029,CST-1368DR,7391,10352,15310,0.079,551
2019-11-11T11:18:43,42.805,6.029,CST-1368DR,7391,10352,15310,0.079,551
2019-11-11T11:21:45,42.805,6.029,CST-1368DR,7391,10352,15310,0.079,551
2019-11-11T11:24:46,42.805,6.029,CST-1368DR,7391,10352,15310,0.079,551
2019-11-11T11:27:48,42.805,6.029,CST-1368DR,7391,10352,15309,0.079,551
2019-11-11T11:30:50,42.805,6.029,CST-1368DR,7391,10352,15309,0.079,551
2019-11-11T11:33:51,42.805,6.029,CST-1368DR,7391,10352,15309,0.079,551
2019-11-11T11:36:53,42.805,6.029,CST-1368DR,7391,10350,15307,0.080,551
2019-11-11T11:39:55,42.805,6.029,CST-1368DR,7391,10351,15308,0.080,550
2019-11-11T11:42:56,42.805,6.029,CST-1368DR,7391,10352,15309,0.079,551
2019-11-11T11:45:58,42.805,6.029,CST-1368DR,7391,10351,15308,0.080,551
2019-11-11T11:49:00,42.805,6.029,CST-1368DR,7391,10352,15309,0.079,551
2019-11-11T11:52:02,42.805,6.029,CST-1368DR,7391,10352,15309,0.079,550
2019-11-11T11:55:03,42.805,6.029,CST-1368DR,7391,10351,15309,0.079,551
2019-11-11T11:58:05,42.805,6.029,CST-1368DR,7391,10352,15309,0.079,551
2019-11-11T12:01:07,42.805,6.029,CST-1368DR,7391,10352,15309,0.079,551
2019-11-11T12:04:08,42.805,6.029,CST-1368DR,7391,10352,15309,0.079,551
2019-11-11T12:07:10,42.805,6.029,CST-1368DR,7390,10351,15310,0.079,551
2019-11-11T12:10:12,42.805,6.029,CST-1368DR,7390,10350,15309,0.079,551
2019-11-11T12:13:13,42.805,6.029,CST-1368DR,7390,10351,15310,0.079,551
2019-11-11T12:16:15,42.805,6.029,CST-1368DR,7390,10350,15308,0.080,551
2019-11-11T12:19:17,42.805,6.029,CST-1368DR,7390,10350,15308,0.080,551
2019-11-11T12:22:18,42.805,6.029,CST-1368DR,7390,10351,15310,0.079,551
2019-11-11T12:25:20,42.805,6.029,CST-1368DR,7390,10352,15311,0.079,551
2019-11-11T12:28:22,42.805,6.029,CST-1368DR,7390,10350,15308,0.080,551
2019-11-11T12:31:23,42.805,6.029,CST-1368DR,7390,10351,15310,0.079,551
2019-11-11T12:34:25,42.805,6.029,CST-1368DR,7390,10351,15310,0.079,551
2019-11-11T12:37:27,42.805,6.029,CST-1368DR,7390,10352,15311,0.079,551
2019-11-11T12:40:28,42.805,6.029,CST-1368DR,7390,10352,15311,0.079,551
2019-11-11T12:43:30,42.805,6.029,CST-1368DR,7390,10352,15311,0.079,551
2019-11-11T12:46:32,42.805,6.029,CST-1368DR,7390,10352,15311,0.079,551
2019-11-11T12:49:33,42.805,6.029,CST-1368DR,7390,10351,15310,0.079,551
2019-11-11T12:52:35,42.805,6.029,CST-1368DR,7390,10350,15309,0.079,551
2019-11-11T12:55:37,42.805,6.029,CST-1368DR,7390,10350,15309,0.079,551
2019-11-11T12:58:38,42.805,6.029,CST-1368DR,7390,10351,15310,0.079,551
2019-11-11T13:01:40,42.805,6.029,CST-1368DR,7390,10352,15311,0.079,551
2019-11-11T13:04:42,42.805,6.029,CST-1368DR,7390,10350,15309,0.079,551
2019-11-11T13:07:43,42.805,6.029,CST-1368DR,7390,10350,15309,0.079,551
2019-11-11T13:10:45,42.805,6.029,CST-1368DR,7390,10351,15310,0.079,551
2019-11-11T13:13:47,42.805,6.029,CST-1368DR,7390,10351,15310,0.079,551
2019-11-11T13:16:48,42.805,6.029,CST-1368DR,7390,10351,15310,0.079,551
2019-11-11T13:19:50,42.805,6.029,CST-1368DR,7390,10349,15307,0.080,551
2019-11-11T13:22:52,42.805,6.029,CST-1368DR,7390,10351,15310,0.079,551
2019-11-11T13:25:53,42.805,6.029,CST-1368DR,7390,10351,15310,0.079,551
2019-11-11T13:28:55,42.805,6.029,CST-1368DR,7390,10351,15310,0.079,551
2019-11-11T13:31:57,42.805,6.029,CST-1368DR,7390,10351,15310,0.079,551
2019-11-11T13:34:58,42.805,6.029,CST-1368DR,7390,10351,15310,0.079,551
2019-11-11T13:38:00,42.805,6.029,CST-1368DR,7390,10350,15308,0.080,551
2019-11-11T13:41:01,42.805,6.029,CST-1368DR,7390,10352,15311,0.079,551
2019-11-11T13:44:03,42.805,6.029,CST-1368DR,7390,10351,15310,0.079,550
2019-11-11T13:47:05,42.805,6.029,CST-1368DR,7390,10352,15311,0.079,551
2019-11-11T13:50:06,42.805,6.029,CST-1368DR,7390,10352,15311,0.079,551
2019-11-11T13:53:08,42.805,6.029,CST-1368DR,7390,10351,15310,0.079,551
2019-11-11T13:56:10,42.805,6.029,CST-1368DR,7390,10352,15311,0.079,551
2019-11-11T13:59:11,42.805,6.029,CST-1368DR,7390,10352,15311,0.079,551
2019-11-11T14:02:13,42.805,6.029,CST-1368DR,7390,10351,15310,0.079,551
2019-11-11T14:05:15,42.805,6.029,CST-1368DR,7390,10351,15310,0.079,551
2019-11-11T14:08:16,42.805,6.029,CST-1368DR,7390,10351,15310,0.079,551
2019-11-11T14:11:18,42.805,6.029,CST-1368DR,7390,10351,15310,0.079,551
2019-11-11T14:14:20,42.805,6.029,CST-1368DR,7390,10352,15311,0.079,551
2019-11-11T14:17:21,42.805,6.029,CST-1368DR,7390,10351,15310,0.079,551
2019-11-11T14:20:23,42.805,6.029,CST-1368DR,7390,10351,15310,0.079,551
2019-11-11T14:23:25,42.805,6.029,CST-1368DR,7390,10351,15310,0.079,550
2019-11-11T14:26:26,42.805,6.029,CST-1368DR,7390,10350,15309,0.079,551
2019-11-11T14:29:28,42.805,6.029,CST-1368DR,7390,10350,15309,0.079,551
2019-11-11T14:32:30,42.805,6.029,CST-1368DR,7390,10349,15306,0.080,551
2019-11-11T14:35:32,42.805,6.029,CST-1368DR,7390,10351,15310,0.079,550
2019-11-11T14:38:33,42.805,6.029,CST-1368DR,7390,10351,15310,0.079,551
2019-11-11T14:41:35,42.805,6.029,CST-1368DR,7390,10350,15308,0.080,550
2019-11-11T14:44:37,42.805,6.029,CST-1368DR,7390,10350,15308,0.080,551
2019-11-11T14:47:38,42.805,6.029,CST-1368DR,7390,10350,15308,0.080,551
2019-11-11T14:50:40,42.805,6.029,CST-1368DR,7390,10349,15307,0.080,551
2019-11-11T14:53:41,42.805,6.029,CST-1368DR,7390,10350,15308,0.080,551
2019-11-11T14:56:43,42.805,6.029,CST-1368DR,7390,10348,15306,0.080,551
2019-11-11T14:59:45,42.805,6.029,CST-1368DR,7390,10348,15305,0.080,551
2019-11-11T15:02:46,42.805,6.029,CST-1368DR,7390,10349,15308,0.080,551
2019-11-11T15:05:48,42.805,6.029,CST-1368DR,7390,10349,15307,0.080,551
2019-11-11T15:08:50,42.805,6.029,CST-1368DR,7389,10349,15309,0.079,551
2019-11-11T15:11:51,42.805,6.029,CST-1368DR,7390,10350,15308,0.080,551
2019-11-11T15:14:53,42.805,6.029,CST-1368DR,7389,10349,15309,0.079,551
2019-11-11T15:17:55,42.805,6.029,CST-1368DR,7389,10350,15310,0.079,551
2019-11-11T15:20:56,42.805,6.029,CST-1368DR,7390,10350,15308,0.080,550
2019-11-11T15:23:58,42.805,6.029,CST-1368DR,7389,10350,15311,0.079,550
2019-11-11T15:27:00,42.805,6.029,CST-1368DR,7389,10349,15309,0.079,551
2019-11-11T15:30:01,42.805,6.029,CST-1368DR,7389,10347,15306,0.080,551
2019-11-11T15:33:03,42.805,6.029,CST-1368DR,7389,10350,15311,0.079,551
2019-11-11T15:36:05,42.805,6.029,CST-1368DR,7389,10350,15310,0.079,551
2019-11-11T15:39:06,42.805,6.029,CST-1368DR,7389,10351,15312,0.079,551
2019-11-11T15:42:08,42.805,6.029,CST-1368DR,7389,10350,15310,0.079,551
2019-11-11T15:45:10,42.805,6.029,CST-1368DR,7389,10348,15308,0.080,550
2019-11-11T15:48:12,42.805,6.029,CST-1368DR,7389,10350,15310,0.079,551
2019-11-11T15:51:13,42.805,6.029,CST-1368DR,7389,10350,15310,0.079,551
2019-11-11T15:54:15,42.805,6.029,CST-1368DR,7389,10349,15309,0.079,550
2019-11-11T15:57:17,42.805,6.029,CST-1368DR,7389,10350,15311,0.079,551
2019-11-11T16:00:18,42.805,6.029,CST-1368DR,7389,10350,15311,0.079,551
2019-11-11T16:03:20,42.805,6.029,CST-1368DR,7389,10351,15312,0.079,551
2019-11-11T16:06:22,42.805,6.029,CST-1368DR,7389,10345,15304,0.081,551
2019-11-11T16:09:23,42.805,6.029,CST-1368DR,7389,10347,15307,0.080,551
2019-11-11T16:12:25,42.805,6.029,CST-1368DR,7389,10348,15308,0.080,551
2019-11-11T16:15:27,42.805,6.029,CST-1368DR,7389,10349,15309,0.079,550
2019-11-11T16:18:28,42.805,6.029,CST-1368DR,7389,10349,15309,0.079,551
2019-11-11T16:21:30,42.805,6.029,CST-1368DR,7389,10349,15308,0.080,551
2019-11-11T16:24:32,42.805,6.029,CST-1368DR,7389,10349,15309,0.079,551
2019-11-11T16:27:33,42.805,6.029,CST-1368DR,7389,10348,15308,0.080,551
2019-11-11T16:30:35,42.805,6.029,CST-1368DR,7389,10349,15309,0.079,551
2019-11-11T16:33:37,42.805,6.029,CST-1368DR,7389,10350,15311,0.079,551
2019-11-11T16:36:38,42.805,6.029,CST-1368DR,7389,10349,15309,0.079,551